| time (UTC) | temp F | wind direction | speed knots | gust knots | rain 1hr in | rain 24hr in | rain mn in | humidity % | barometer mb |
| 20260506062055 | 33 | 23 | 0.0 | 1.7 | 0.00 | 0.00 | 0.00 | 65 | 1015.6 |
| 20260506061554 | 33 | 22 | 0.0 | 1.7 | 0.00 | 0.00 | 0.00 | 65 | 1015.5 |
| 20260506061054 | 33 | 25 | 0.0 | 1.7 | 0.00 | 0.00 | 0.00 | 66 | 1015.6 |
| 20260506060553 | 33 | 22 | 0.0 | 0.9 | 0.00 | 0.00 | 0.00 | 66 | 1015.6 |
| 20260506051044 | 34 | 51 | 0.9 | 2.6 | 0.00 | 0.00 | 0.00 | 64 | 1015.3 |
| 20260506050544 | 35 | 49 | 0.9 | 2.6 | 0.00 | 0.00 | 0.00 | 63 | 1015.3 |
| 20260506045042 | 35 | 51 | 1.7 | 5.2 | 0.00 | 0.00 | 0.00 | 62 | 1015.2 |
| 20260506044542 | 35 | 71 | 1.7 | 5.2 | 0.00 | 0.00 | 0.00 | 62 | 1015.2 |
| 20260506044141 | 36 | 49 | 0.9 | 7.0 | 0.00 | 0.00 | 0.00 | 62 | 1015.2 |
| 20260506043541 | 35 | 40 | 1.7 | 7.0 | 0.00 | 0.00 | 0.00 | 62 | 1015.2 |
| 20260506043041 | 36 | 41 | 0.0 | 1.7 | 0.00 | 0.00 | 0.00 | 62 | 1015.2 |
| 20260506042541 | 36 | 12 | 0.0 | 1.7 | 0.00 | 0.00 | 0.00 | 61 | 1015.1 |
| 20260506042040 | 36 | 30 | 0.0 | 3.5 | 0.00 | 0.00 | 0.00 | 61 | 1015.1 |
| 20260506041540 | 36 | 12 | 0.9 | 3.5 | 0.00 | 0.00 | 0.00 | 61 | 1015.1 |
| 20260506041039 | 36 | 13 | 0.9 | 3.5 | 0.00 | 0.00 | 0.00 | 61 | 1015.1 |
| 20260506040539 | 36 | 18 | 0.9 | 6.1 | 0.00 | 0.00 | 0.00 | 61 | 1015.1 |
| 20260506040038 | 36 | 18 | 1.7 | 6.1 | 0.00 | 0.00 | 0.00 | 61 | 1015.0 |
| 20260506035537 | 36 | 22 | 0.0 | 2.6 | 0.00 | 0.00 | 0.00 | 61 | 1015.0 |
| 20260506035039 | 36 | 20 | 0.0 | 2.6 | 0.00 | 0.00 | 0.00 | 60 | 1014.9 |
| 20260506034545 | 37 | 16 | 0.0 | 4.3 | 0.00 | 0.00 | 0.00 | 60 | 1014.9 |
| 20260506034035 | 37 | 11 | 0.0 | 4.3 | 0.00 | 0.00 | 0.00 | 60 | 1014.9 |
| 20260506033534 | 37 | 11 | 0.9 | 3.5 | 0.00 | 0.00 | 0.00 | 60 | 1014.8 |
| 20260506033034 | 37 | 360 | 0.0 | 3.5 | 0.00 | 0.00 | 0.00 | 60 | 1014.7 |
| 20260506032537 | 37 | 39 | 0.9 | 3.5 | 0.00 | 0.00 | 0.00 | 60 | 1014.7 |
| 20260506032034 | 37 | 34 | 0.0 | 1.7 | 0.00 | 0.00 | 0.00 | 60 | 1014.6 |
| 20260506031534 | 37 | 15 | 0.0 | 1.7 | 0.00 | 0.00 | 0.00 | 59 | 1014.6 |
| 20260506031034 | 37 | 38 | 0.0 | 2.6 | 0.00 | 0.00 | 0.00 | 59 | 1014.6 |
| 20260506030533 | 37 | 8 | 0.0 | 2.6 | 0.00 | 0.00 | 0.00 | 58 | 1014.6 |
| 20260506030039 | 38 | 44 | 0.0 | 2.6 | 0.00 | 0.00 | 0.00 | 58 | 1014.6 |
| 20260506025532 | 38 | 23 | 0.0 | 4.3 | 0.00 | 0.00 | 0.00 | 57 | 1014.4 |
| 20260506025031 | 38 | 27 | 0.9 | 5.2 | 0.00 | 0.00 | 0.00 | 56 | 1014.4 |
| 20260506024553 | 39 | 25 | 0.9 | 6.1 | 0.00 | 0.00 | 0.00 | 56 | 1014.5 |
| 20260506024031 | 39 | 359 | 2.6 | 7.0 | 0.00 | 0.00 | 0.00 | 56 | 1014.5 |
| 20260506023531 | 39 | 356 | 1.7 | 7.0 | 0.00 | 0.00 | 0.00 | 56 | 1014.4 |
| 20260506023029 | 39 | 335 | 2.6 | 7.8 | 0.00 | 0.00 | 0.00 | 56 | 1014.3 |
| 20260506022528 | 39 | 13 | 0.9 | 7.8 | 0.00 | 0.00 | 0.00 | 56 | 1014.2 |
| 20260506022027 | 39 | 340 | 2.6 | 5.2 | 0.00 | 0.00 | 0.00 | 56 | 1014.2 |
| 20260506021528 | 39 | 358 | 0.9 | 7.0 | 0.00 | 0.00 | 0.00 | 56 | 1014.1 |
| 20260506021028 | 39 | 359 | 2.6 | 7.0 | 0.00 | 0.00 | 0.00 | 55 | 1014.0 |
| 20260506020526 | 40 | 345 | 1.7 | 7.0 | 0.00 | 0.00 | 0.00 | 55 | 1013.9 |
| 20260506020024 | 40 | 18 | 2.6 | 9.6 | 0.00 | 0.00 | 0.00 | 55 | 1013.9 |
| 20260506015524 | 40 | 19 | 3.5 | 9.6 | 0.00 | 0.00 | 0.00 | 55 | 1013.8 |
| 20260506015024 | 40 | 12 | 3.5 | 7.8 | 0.00 | 0.00 | 0.00 | 54 | 1013.7 |
| 20260506014522 | 40 | 352 | 2.6 | 7.8 | 0.00 | 0.00 | 0.00 | 54 | 1013.7 |
| 20260506014023 | 41 | 12 | 2.6 | 7.0 | 0.00 | 0.00 | 0.00 | 54 | 1013.6 |
| 20260506013522 | 41 | 332 | 2.6 | 7.8 | 0.00 | 0.00 | 0.00 | 53 | 1013.6 |
| 20260506013034 | 41 | 8 | 2.6 | 7.8 | 0.00 | 0.00 | 0.00 | 53 | 1013.5 |
| 20260506012522 | 41 | 345 | 3.5 | 8.7 | 0.00 | 0.00 | 0.00 | 53 | 1013.5 |
| 20260506012020 | 42 | 338 | 2.6 | 8.7 | 0.00 | 0.00 | 0.00 | 52 | 1013.3 |
| 20260506011520 | 42 | 345 | 2.6 | 11.3 | 0.00 | 0.00 | 0.00 | 52 | 1013.3 |
| 20260506011020 | 42 | 335 | 4.3 | 9.6 | 0.00 | 0.00 | 0.00 | 52 | 1013.3 |
| 20260506010519 | 42 | 51 | 3.5 | 11.3 | 0.00 | 0.00 | 0.00 | 51 | 1013.1 |
| 20260506010024 | 43 | 333 | 4.3 | 11.3 | 0.00 | 0.00 | 0.00 | 50 | 1013.0 |
| 20260506005517 | 43 | 12 | 3.5 | 12.2 | 0.00 | 0.00 | 0.00 | 49 | 1013.0 |
| 20260506005017 | 44 | 341 | 4.3 | 12.2 | 0.00 | 0.00 | 0.00 | 48 | 1013.0 |
| 20260506004517 | 44 | 330 | 3.5 | 10.4 | 0.00 | 0.00 | 0.00 | 48 | 1013.0 |
| 20260506004017 | 44 | 34 | 4.3 | 13.0 | 0.00 | 0.00 | 0.00 | 47 | 1012.9 |
| 20260506003517 | 44 | 9 | 6.1 | 13.9 | 0.00 | 0.00 | 0.00 | 46 | 1012.9 |
| 20260506003018 | 44 | 360 | 5.2 | 13.9 | 0.00 | 0.00 | 0.00 | 46 | 1012.8 |
| 20260506002515 | 44 | 349 | 2.6 | 10.4 | 0.00 | 0.00 | 0.00 | 46 | 1012.8 |
| 20260506002015 | 45 | 325 | 3.5 | 11.3 | 0.00 | 0.00 | 0.00 | 46 | 1012.5 |
| 20260506001514 | 45 | 342 | 2.6 | 11.3 | 0.00 | 0.00 | 0.00 | 46 | 1012.5 |
| 20260506001014 | 45 | 26 | 2.6 | 8.7 | 0.00 | 0.00 | 0.00 | 45 | 1012.5 |
| 20260506000514 | 45 | 46 | 4.3 | 8.7 | 0.00 | 0.00 | 0.00 | 45 | 1012.4 |
| 20260506000013 | 45 | 27 | 1.7 | 9.6 | 0.00 | 0.00 | 0.00 | 45 | 1012.4 |
| 20260505235512 | 45 | 49 | 2.6 | 11.3 | 0.00 | 0.00 | 0.00 | 45 | 1012.4 |
| 20260505235012 | 45 | 13 | 3.5 | 11.3 | 0.00 | 0.00 | 0.00 | 44 | 1012.4 |
| 20260505234512 | 46 | 323 | 3.5 | 14.8 | 0.00 | 0.00 | 0.00 | 44 | 1012.3 |
| 20260505234013 | 46 | 325 | 5.2 | 13.9 | 0.00 | 0.00 | 0.00 | 44 | 1012.3 |
| 20260505233510 | 45 | 311 | 2.6 | 8.7 | 0.00 | 0.00 | 0.00 | 45 | 1012.2 |
| 20260505233015 | 46 | 12 | 4.3 | 13.9 | 0.00 | 0.00 | 0.00 | 44 | 1012.2 |
| 20260505232508 | 46 | 46 | 7.0 | 13.9 | 0.00 | 0.00 | 0.00 | 44 | 1012.2 |
| 20260505232008 | 46 | 19 | 3.5 | 11.3 | 0.00 | 0.00 | 0.00 | 44 | 1012.0 |
| 20260505231508 | 47 | 342 | 5.2 | 10.4 | 0.00 | 0.00 | 0.00 | 43 | 1012.0 |
| 20260505231013 | 47 | 351 | 7.0 | 13.0 | 0.00 | 0.00 | 0.00 | 43 | 1011.9 |
| 20260505230508 | 47 | 290 | 4.3 | 13.0 | 0.00 | 0.00 | 0.00 | 44 | 1011.9 |
| 20260505230022 | 47 | 14 | 5.2 | 13.0 | 0.00 | 0.00 | 0.00 | 43 | 1012.0 |
| 20260505225507 | 47 | 323 | 6.1 | 13.0 | 0.00 | 0.00 | 0.00 | 43 | 1011.9 |
| 20260505225007 | 47 | 325 | 4.3 | 12.2 | 0.00 | 0.00 | 0.00 | 43 | 1011.8 |
| 20260505224506 | 47 | 340 | 6.1 | 14.8 | 0.00 | 0.00 | 0.00 | 42 | 1011.9 |
| 20260505224011 | 48 | 333 | 5.2 | 11.3 | 0.00 | 0.00 | 0.00 | 42 | 1011.8 |
| 20260505223506 | 47 | 320 | 2.6 | 8.7 | 0.00 | 0.00 | 0.00 | 43 | 1011.8 |
| 20260505223006 | 47 | 309 | 2.6 | 9.6 | 0.00 | 0.00 | 0.00 | 43 | 1011.8 |
| 20260505222506 | 47 | 326 | 3.5 | 14.8 | 0.00 | 0.00 | 0.00 | 43 | 1011.8 |
| 20260505222006 | 47 | 345 | 6.1 | 14.8 | 0.00 | 0.00 | 0.00 | 42 | 1011.8 |
| 20260505221506 | 48 | 339 | 5.2 | 13.0 | 0.00 | 0.00 | 0.00 | 41 | 1011.7 |
| 20260505221005 | 48 | 349 | 3.5 | 13.0 | 0.00 | 0.00 | 0.00 | 41 | 1011.6 |
| 20260505220505 | 47 | 93 | 6.1 | 13.0 | 0.00 | 0.00 | 0.00 | 41 | 1011.6 |
| 20260505220006 | 48 | 314 | 5.2 | 13.9 | 0.00 | 0.00 | 0.00 | 41 | 1011.6 |
| 20260505215505 | 48 | 278 | 7.8 | 13.9 | 0.00 | 0.00 | 0.00 | 40 | 1011.5 |
| 20260505215005 | 48 | 274 | 5.2 | 15.6 | 0.00 | 0.00 | 0.00 | 41 | 1011.7 |
| 20260505214506 | 48 | 328 | 5.2 | 15.6 | 0.00 | 0.00 | 0.00 | 40 | 1011.7 |
| 20260505214006 | 48 | 274 | 6.1 | 12.2 | 0.00 | 0.00 | 0.00 | 43 | 1011.8 |
| 20260505213503 | 48 | 294 | 3.5 | 10.4 | 0.00 | 0.00 | 0.00 | 43 | 1011.8 |
| 20260505213002 | 47 | 300 | 4.3 | 10.4 | 0.00 | 0.00 | 0.00 | 45 | 1011.8 |
| 20260505212504 | 46 | 340 | 5.2 | 16.5 | 0.00 | 0.00 | 0.00 | 44 | 1011.9 |
| 20260505212002 | 47 | 278 | 11.3 | 16.5 | 0.00 | 0.00 | 0.00 | 42 | 1011.8 |
| 20260505211502 | 47 | 303 | 7.0 | 16.5 | 0.00 | 0.00 | 0.00 | 43 | 1011.9 |
| 20260505211002 | 47 | 293 | 8.7 | 16.5 | 0.00 | 0.00 | 0.00 | 44 | 1011.8 |
| 20260505210601 | 47 | 41 | 4.3 | 11.3 | 0.00 | 0.00 | 0.00 | 42 | 1011.9 |
| 20260505210100 | 47 | 328 | 3.5 | 7.8 | 0.00 | 0.00 | 0.00 | 42 | 1011.9 |
| 20260505205559 | 47 | 248 | 1.7 | 7.8 | 0.00 | 0.00 | 0.00 | 44 | 1011.9 |
| 20260505205100 | 46 | 353 | 4.3 | 9.6 | 0.00 | 0.00 | 0.00 | 43 | 1011.9 |
| 20260505204607 | 46 | 20 | 3.5 | 13.9 | 0.00 | 0.00 | 0.00 | 43 | 1012.0 |
| 20260505204058 | 46 | 315 | 6.1 | 13.9 | 0.00 | 0.00 | 0.00 | 44 | 1012.0 |
| 20260505203559 | 46 | 298 | 4.3 | 15.6 | 0.00 | 0.00 | 0.00 | 43 | 1012.0 |
| 20260505203116 | 46 | 341 | 7.0 | 14.8 | 0.00 | 0.00 | 0.00 | 43 | 1012.1 |
| 20260505202559 | 46 | 326 | 3.5 | 11.3 | 0.00 | 0.00 | 0.00 | 43 | 1012.0 |
| 20260505202057 | 46 | 238 | 3.5 | 13.0 | 0.00 | 0.00 | 0.00 | 44 | 1012.0 |
| 20260505201558 | 46 | 316 | 7.0 | 13.0 | 0.00 | 0.00 | 0.00 | 44 | 1012.0 |
| 20260505201057 | 46 | 298 | 6.1 | 12.2 | 0.00 | 0.00 | 0.00 | 44 | 1012.1 |
| 20260505200600 | 46 | 307 | 4.3 | 13.0 | 0.00 | 0.00 | 0.00 | 44 | 1012.1 |
| 20260505200101 | 47 | 311 | 5.2 | 13.0 | 0.00 | 0.00 | 0.00 | 43 | 1012.1 |
| 20260505195558 | 47 | 44 | 2.6 | 12.2 | 0.00 | 0.00 | 0.00 | 44 | 1012.0 |
| 20260505195056 | 46 | 283 | 4.3 | 13.0 | 0.00 | 0.00 | 0.00 | 43 | 1012.0 |
| 20260505194610 | 47 | 330 | 5.2 | 14.8 | 0.00 | 0.00 | 0.00 | 44 | 1012.1 |
| 20260505194059 | 46 | 297 | 5.2 | 14.8 | 0.00 | 0.00 | 0.00 | 43 | 1011.9 |
| 20260505194005 | 47 | 338 | 6.1 | 14.8 | 0.00 | 0.00 | 0.00 | 43 | 1012.0 |
| 20260505193555 | 46 | 296 | 3.5 | 13.9 | 0.00 | 0.00 | 0.00 | 43 | 1012.0 |
| 20260505193512 | 46 | 319 | 3.5 | 13.9 | 0.00 | 0.00 | 0.00 | 42 | 1012.0 |
| 20260505193107 | 47 | 313 | 6.1 | 13.9 | 0.00 | 0.00 | 0.00 | 43 | 1012.0 |
| 20260505192554 | 46 | 280 | 5.2 | 13.9 | 0.00 | 0.00 | 0.00 | 43 | 1012.0 |
| 20260505192054 | 46 | 349 | 5.2 | 13.9 | 0.00 | 0.00 | 0.00 | 43 | 1012.0 |
| 20260505191554 | 46 | 302 | 5.2 | 14.8 | 0.00 | 0.00 | 0.00 | 43 | 1012.1 |
| 20260505191053 | 46 | 349 | 7.0 | 14.8 | 0.00 | 0.00 | 0.00 | 43 | 1012.1 |
| 20260505190557 | 46 | 85 | 2.6 | 12.2 | 0.00 | 0.00 | 0.00 | 44 | 1011.9 |
| 20260505190053 | 46 | 356 | 6.1 | 12.2 | 0.00 | 0.00 | 0.00 | 43 | 1012.1 |
| 20260505185556 | 46 | 324 | 4.3 | 10.4 | 0.00 | 0.00 | 0.00 | 43 | 1012.0 |
| 20260505185052 | 46 | 323 | 4.3 | 13.9 | 0.00 | 0.00 | 0.00 | 43 | 1012.0 |
| 20260505184553 | 46 | 281 | 3.5 | 14.8 | 0.00 | 0.00 | 0.00 | 44 | 1012.1 |
| 20260505184054 | 45 | 297 | 7.0 | 14.8 | 0.00 | 0.00 | 0.00 | 44 | 1012.0 |
| 20260505183555 | 46 | 270 | 7.8 | 13.9 | 0.00 | 0.00 | 0.00 | 43 | 1012.0 |
| 20260505183058 | 46 | 328 | 5.2 | 13.9 | 0.00 | 0.00 | 0.00 | 46 | 1012.0 |
| 20260505182550 | 45 | 291 | 5.2 | 13.9 | 0.00 | 0.00 | 0.00 | 46 | 1012.0 |
| 20260505182050 | 45 | 303 | 4.3 | 13.0 | 0.00 | 0.00 | 0.00 | 45 | 1012.0 |
| 20260505181550 | 45 | 337 | 6.1 | 12.2 | 0.00 | 0.00 | 0.00 | 45 | 1012.0 |
| 20260505181049 | 45 | 10 | 4.3 | 12.2 | 0.00 | 0.00 | 0.00 | 45 | 1012.0 |
| 20260505180549 | 45 | 250 | 5.2 | 12.2 | 0.00 | 0.00 | 0.00 | 44 | 1011.9 |
| 20260505180051 | 45 | 300 | 5.2 | 14.8 | 0.00 | 0.00 | 0.00 | 44 | 1011.9 |
| 20260505175548 | 45 | 328 | 5.2 | 14.8 | 0.00 | 0.00 | 0.00 | 46 | 1011.9 |
| 20260505175048 | 45 | 280 | 7.0 | 13.9 | 0.00 | 0.00 | 0.00 | 46 | 1011.8 |
| 20260505174648 | 45 | 269 | 7.0 | 13.9 | 0.00 | 0.00 | 0.00 | 46 | 1011.8 |
| 20260505174048 | 45 | 262 | 7.0 | 12.2 | 0.00 | 0.00 | 0.00 | 44 | 1011.8 |
| 20260505173547 | 45 | 98 | 5.2 | 15.6 | 0.00 | 0.00 | 0.00 | 44 | 1011.9 |
| 20260505173050 | 45 | 6 | 3.5 | 18.2 | 0.00 | 0.00 | 0.00 | 46 | 1011.9 |
| 20260505172550 | 45 | 350 | 6.1 | 18.2 | 0.00 | 0.00 | 0.00 | 44 | 1011.8 |
| 20260505172047 | 45 | 250 | 7.8 | 16.5 | 0.00 | 0.00 | 0.00 | 43 | 1011.7 |
| 20260505171547 | 45 | 290 | 7.8 | 13.0 | 0.00 | 0.00 | 0.00 | 44 | 1012.0 |
| 20260505171049 | 45 | 41 | 3.5 | 12.2 | 0.00 | 0.00 | 0.00 | 46 | 1012.0 |
| 20260505170548 | 44 | 357 | 4.3 | 13.0 | 0.00 | 0.00 | 0.00 | 46 | 1012.0 |
| 20260505170046 | 45 | 290 | 5.2 | 13.0 | 0.00 | 0.00 | 0.00 | 44 | 1012.0 |
| 20260505165545 | 45 | 274 | 3.5 | 16.5 | 0.00 | 0.00 | 0.00 | 43 | 1012.0 |
| 20260505165045 | 46 | 292 | 5.2 | 16.5 | 0.00 | 0.00 | 0.00 | 42 | 1012.0 |
| 20260505164557 | 46 | 326 | 6.1 | 11.3 | 0.00 | 0.00 | 0.00 | 43 | 1011.8 |
| 20260505164043 | 46 | 339 | 3.5 | 10.4 | 0.00 | 0.00 | 0.00 | 45 | 1011.9 |
| 20260505163542 | 45 | 317 | 2.6 | 10.4 | 0.00 | 0.00 | 0.00 | 47 | 1011.9 |
| 20260505163048 | 44 | 20 | 4.3 | 12.2 | 0.00 | 0.00 | 0.00 | 47 | 1011.9 |
| 20260505162545 | 45 | 12 | 6.1 | 12.2 | 0.00 | 0.00 | 0.00 | 45 | 1011.9 |
| 20260505162040 | 44 | 47 | 5.2 | 11.3 | 0.00 | 0.00 | 0.00 | 47 | 1011.9 |
| 20260505161543 | 44 | 266 | 4.3 | 12.2 | 0.00 | 0.00 | 0.00 | 46 | 1011.8 |
| 20260505161039 | 43 | 253 | 6.1 | 12.2 | 0.00 | 0.00 | 0.00 | 46 | 1011.9 |
| 20260505160539 | 43 | 56 | 6.1 | 10.4 | 0.00 | 0.00 | 0.00 | 46 | 1012.0 |
| 20260505153048 | 43 | 296 | 4.3 | 12.2 | 0.00 | 0.00 | 0.00 | 47 | 1011.8 |
| 20260505152535 | 42 | 332 | 4.3 | 12.2 | 0.00 | 0.00 | 0.00 | 48 | 1011.8 |
| 20260505152033 | 42 | 29 | 4.3 | 11.3 | 0.00 | 0.00 | 0.00 | 49 | 1011.8 |
| 20260505151541 | 43 | 336 | 5.2 | 11.3 | 0.00 | 0.00 | 0.00 | 48 | 1011.8 |
| 20260505151032 | 43 | 73 | 2.6 | 7.8 | 0.00 | 0.00 | 0.00 | 49 | 1011.7 |
| 20260505150532 | 43 | 309 | 4.3 | 7.8 | 0.00 | 0.00 | 0.00 | 48 | 1011.7 |
| 20260505140524 | 41 | 16 | 1.7 | 7.0 | 0.00 | 0.00 | 0.00 | 52 | 1011.3 |
| 20260505125016 | 37 | 60 | 4.3 | 8.7 | 0.00 | 0.00 | 0.00 | 54 | 1010.5 |
| 20260505124515 | 37 | 347 | 4.3 | 7.8 | 0.00 | 0.00 | 0.00 | 53 | 1010.5 |
| 20260505124017 | 37 | 51 | 4.3 | 10.4 | 0.00 | 0.00 | 0.00 | 54 | 1010.5 |
| 20260505123516 | 37 | 49 | 4.3 | 10.4 | 0.00 | 0.00 | 0.00 | 55 | 1010.4 |
| 20260505123012 | 37 | 352 | 3.5 | 8.7 | 0.00 | 0.00 | 0.00 | 55 | 1010.4 |
| 20260505122511 | 37 | 34 | 4.3 | 8.7 | 0.00 | 0.00 | 0.00 | 56 | 1010.3 |
| 20260505122013 | 37 | 8 | 2.6 | 6.1 | 0.00 | 0.00 | 0.00 | 56 | 1010.3 |
| 20260505121510 | 36 | 13 | 1.7 | 7.0 | 0.00 | 0.00 | 0.00 | 57 | 1010.1 |
| 20260505121010 | 36 | 60 | 0.9 | 7.8 | 0.00 | 0.00 | 0.00 | 58 | 1010.1 |
| 20260505120507 | 36 | 9 | 2.6 | 8.7 | 0.00 | 0.00 | 0.00 | 58 | 1010.0 |
| 20260505120007 | 36 | 349 | 2.6 | 7.0 | 0.00 | 0.00 | 0.00 | 60 | 1010.0 |
| 20260505115505 | 36 | 360 | 1.7 | 7.0 | 0.00 | 0.00 | 0.00 | 61 | 1009.9 |
| 20260505115004 | 35 | 13 | 1.7 | 5.2 | 0.00 | 0.00 | 0.00 | 64 | 1009.8 |
| 20260505114504 | 35 | 33 | 0.0 | 2.6 | 0.00 | 0.00 | 0.00 | 66 | 1009.9 |
| 20260505114004 | 35 | 42 | 0.9 | 3.5 | 0.00 | 0.00 | 0.00 | 67 | 1009.8 |
| 20260505113503 | 35 | 6 | 0.9 | 5.2 | 0.00 | 0.00 | 0.00 | 68 | 1009.7 |
| 20260505113001 | 34 | 351 | 1.7 | 5.2 | 0.00 | 0.00 | 0.00 | 68 | 1009.6 |
| 20260505112502 | 34 | 44 | 1.7 | 5.2 | 0.00 | 0.00 | 0.00 | 70 | 1009.5 |
| 20260505112002 | 34 | 352 | 0.9 | 6.1 | 0.00 | 0.00 | 0.00 | 71 | 1009.5 |
| 20260505111600 | 34 | 309 | 2.6 | 6.1 | 0.00 | 0.00 | 0.00 | 71 | 1009.4 |
| 20260505111102 | 34 | 309 | 0.9 | 4.3 | 0.00 | 0.00 | 0.00 | 72 | 1009.4 |
| 20260505110558 | 34 | 353 | 0.9 | 3.5 | 0.00 | 0.00 | 0.00 | 72 | 1009.3 |
| 20260505110105 | 34 | 13 | 0.9 | 4.3 | 0.00 | 0.00 | 0.00 | 72 | 1009.3 |
| 20260505102007 | 36 | 359 | 2.6 | 6.1 | 0.00 | 0.00 | 0.00 | 71 | 1009.1 |
| 20260505101508 | 36 | 353 | 0.0 | 7.8 | 0.00 | 0.00 | 0.00 | 71 | 1009.1 |
| 20260505101005 | 36 | 357 | 2.6 | 7.8 | 0.00 | 0.00 | 0.00 | 71 | 1009.1 |
| 20260505100506 | 36 | 13 | 2.6 | 7.0 | 0.00 | 0.00 | 0.00 | 70 | 1009.0 |
| 20260505100008 | 36 | 9 | 3.5 | 7.0 | 0.00 | 0.00 | 0.00 | 70 | 1009.0 |
| 20260505095505 | 36 | 29 | 0.9 | 7.8 | 0.00 | 0.00 | 0.00 | 70 | 1009.1 |
| 20260505095002 | 37 | 5 | 3.5 | 7.8 | 0.00 | 0.00 | 0.00 | 70 | 1009.0 |
| 20260505094607 | 37 | 333 | 0.9 | 5.2 | 0.00 | 0.00 | 0.00 | 70 | 1009.0 |
| 20260505094059 | 37 | 33 | 2.6 | 6.1 | 0.00 | 0.00 | 0.00 | 70 | 1008.9 |
| 20260505093558 | 37 | 338 | 1.7 | 6.1 | 0.00 | 0.00 | 0.00 | 70 | 1008.9 |
| 20260505093057 | 37 | 27 | 0.9 | 7.0 | 0.00 | 0.00 | 0.00 | 69 | 1008.8 |
| 20260505092556 | 37 | 319 | 1.7 | 7.0 | 0.00 | 0.00 | 0.00 | 69 | 1008.7 |
| 20260505092050 | 38 | 358 | 1.7 | 7.0 | 0.00 | 0.00 | 0.00 | 69 | 1008.7 |
| 20260505091557 | 38 | 354 | 3.5 | 7.0 | 0.00 | 0.00 | 0.00 | 69 | 1008.7 |
| 20260505091049 | 38 | 349 | 1.7 | 6.1 | 0.00 | 0.00 | 0.00 | 68 | 1008.7 |
| 20260505090548 | 38 | 324 | 0.9 | 10.4 | 0.00 | 0.00 | 0.00 | 68 | 1008.6 |
| 20260505090056 | 38 | 12 | 1.7 | 10.4 | 0.00 | 0.00 | 0.00 | 67 | 1008.4 |
| 20260505085547 | 38 | 332 | 2.6 | 10.4 | 0.00 | 0.00 | 0.00 | 67 | 1008.4 |
| 20260505085047 | 38 | 336 | 2.6 | 10.4 | 0.00 | 0.00 | 0.00 | 67 | 1008.4 |
| 20260505084549 | 38 | 343 | 3.5 | 8.7 | 0.00 | 0.00 | 0.00 | 67 | 1008.3 |
| 20260505084044 | 38 | 343 | 1.7 | 6.1 | 0.00 | 0.00 | 0.00 | 67 | 1008.3 |
| 20260505083544 | 38 | 343 | 2.6 | 7.8 | 0.00 | 0.00 | 0.00 | 67 | 1008.2 |
| 20260505083048 | 38 | 345 | 1.7 | 7.0 | 0.00 | 0.00 | 0.00 | 67 | 1008.1 |
| 20260505082543 | 38 | 309 | 2.6 | 6.1 | 0.00 | 0.00 | 0.00 | 67 | 1008.0 |
| 20260505082044 | 38 | 345 | 2.6 | 6.1 | 0.00 | 0.00 | 0.00 | 67 | 1008.0 |
| 20260505081555 | 38 | 345 | 1.7 | 6.1 | 0.00 | 0.00 | 0.00 | 67 | 1008.0 |
| 20260505081040 | 38 | 349 | 0.0 | 6.1 | 0.00 | 0.00 | 0.00 | 66 | 1007.9 |
| 20260505080541 | 38 | 353 | 2.6 | 7.8 | 0.00 | 0.00 | 0.00 | 66 | 1007.9 |
| 20260505080045 | 38 | 345 | 3.5 | 7.8 | 0.00 | 0.00 | 0.00 | 66 | 1007.9 |
| 20260505075537 | 38 | 309 | 1.7 | 7.0 | 0.00 | 0.00 | 0.00 | 66 | 1007.9 |
| 20260505075111 | 38 | 292 | 2.6 | 7.0 | 0.00 | 0.00 | 0.00 | 66 | 1007.9 |
| 20260505074547 | 38 | 313 | 2.6 | 7.8 | 0.00 | 0.00 | 0.00 | 66 | 1007.8 |
| 20260505074036 | 38 | 260 | 1.7 | 7.8 | 0.00 | 0.00 | 0.00 | 66 | 1007.8 |
| 20260505073535 | 38 | 307 | 2.6 | 7.8 | 0.00 | 0.00 | 0.00 | 66 | 1007.8 |
| 20260505073034 | 38 | 301 | 0.9 | 4.3 | 0.00 | 0.00 | 0.00 | 66 | 1007.8 |
| 20260505072532 | 38 | 259 | 0.9 | 7.8 | 0.00 | 0.00 | 0.00 | 65 | 1007.9 |
| 20260505072032 | 38 | 338 | 0.9 | 7.8 | 0.00 | 0.00 | 0.00 | 64 | 1007.9 |
| 20260505071531 | 38 | 336 | 1.7 | 5.2 | 0.00 | 0.00 | 0.00 | 64 | 1007.9 |
| 20260505071031 | 38 | 299 | 1.7 | 6.1 | 0.00 | 0.00 | 0.00 | 64 | 1007.9 |
| 20260505070531 | 38 | 314 | 0.9 | 6.1 | 0.00 | 0.00 | 0.00 | 63 | 1007.7 |
| 20260505070031 | 38 | 335 | 0.9 | 6.1 | 0.00 | 0.00 | 0.00 | 63 | 1007.8 |
| 20260505065532 | 39 | 323 | 1.7 | 7.0 | 0.00 | 0.00 | 0.00 | 63 | 1007.7 |
| 20260505065030 | 38 | 307 | 1.7 | 7.0 | 0.00 | 0.00 | 0.00 | 64 | 1007.8 |
| 20260505064530 | 39 | 287 | 2.6 | 7.8 | 0.00 | 0.00 | 0.00 | 64 | 1007.8 |
| 20260505064029 | 39 | 296 | 3.5 | 7.8 | 0.00 | 0.00 | 0.00 | 64 | 1007.9 |
| 20260505063527 | 39 | 294 | 1.7 | 7.0 | 0.00 | 0.00 | 0.00 | 63 | 1007.9 |
| 20260505063034 | 39 | 290 | 0.9 | 4.3 | 0.00 | 0.00 | 0.00 | 63 | 1007.7 |